User: anonymous   Login
Location: Aiyekoto
(8.4333°N, 4.3667°E)
Time: 12:09:52
(UTC+00:00)
Language:

Transit 4A - Orbit

View from above orbital plane
View from above orbital plane
View from above satellite
View from above satellite

Ground track
Ground track

The orbit data is extracted from the following two-line orbital elements,

1   116U 61015A   20269.86245483 -.00000059 +00000-0 +14067-4 0  9997
2   116 066.8104 322.7564 0081729 295.9944 063.2734 13.91775649005803
Epoch (UTC): 25 September 2020 20:41:56
Eccentricity: 0.0081729
inclination: 66.8104°
perigee height: 863 km
apogee height: 982 km
right ascension of ascending node: 322.7564°
argument of perigee: 295.9944°
revolutions per day: 13.91775649
mean anomaly at epoch: 63.2734°
orbit number at epoch: 580

The dashed part of the orbit path shows where the satellite is in the earth's shadow,  

DLR